Tracking 31032 objects as of 14-Jul-2025
HD Live streaming from Space Station
objects crossing your sky now

STARLINK-11238

Track STARLINK-11238 now!
10-day predictions
STARLINK-11238 is classified as:


NORAD ID: 60928
Int'l Code: 2024-155E
Perigee: 366.4 km
Apogee: 367.5 km
Inclination: 53.2 °
Period: 91.7 minutes
Semi major axis: 6737 km
RCS: Unknown
Launch date: August 31, 2024
Source: United States (US)
Launch site: AIR FORCE WESTERN TEST RANGE (AFWTR)
Your satellite tracking list
Your tracking list is empty




NASA's NSSDC Master Catalog

Two Line Element Set (TLE):
1 60928U 24155E   25195.06677196  .00003357  00000-0  32583-4 0  9999
2 60928  53.1583  77.6021 0000836  98.9704 261.1409 15.69684496 50971
Source of the keplerian elements: AFSPC